Погода в Хотнеже

Россия / Санкт-Петербург и Ленинградская область     59°07′46″N   29°17′31″E
темп.,
°C
ветер,
м/с
пор.,
м/с
влажн.,
%
обл.,
%
осадки,
мм/ч
давл.,
гПа
погр.,
м
7 марта, вс
вс700:000зюз71593100 2.3 9921072
03:00−2з51288100 5.7 9911334
06:00−6з5147080 0.3 9901337
09:00−7зюз3117583 0.3 990831
12:00−5сз6106457 0.1 9911583
15:00−5сз466935 0.1 9921126
18:00−7сз37835 0.0 994277
21:00−11сз39903 0.0 996215
8 марта, пн
пн800:00−9ссз4119195 0.0 998505
03:00−9с5118796 0.0 1002706
06:00−11с4118998 0.0 1004639
09:00−12с4108995 0.0 1008569
12:00−10с4784100 0.0 1011518
15:00−9ссз468189 0.0 1013585
18:00−10ссз368755 0.0 1014447
21:00−14ссз239640 0.0 101673
9 марта, вт
вт900:00−16с12960 0.0 101720
03:00−17с12950 0.0 101820
06:00−17ссв119536 0.0 101920
09:00−16в129362 0.0 102098
12:00−12юв2383100 0.0 1020416
15:00−9вюв3578100 0.0 1020552
18:00−11вюв4879100 0.0 1019600
21:00−12вюв51079100 0.1 1020507
10 марта, ср
ср1000:00−14в5118499 0.0 1021439
03:00−17в4118662 0.0 1022334
06:00−17в411880 0.0 1022314
09:00−16в410760 0.0 1024320
12:00−10в496557 0.0 1025481
15:00−8в476269 0.0 1024767
18:00−10в387458 0.0 1023483
21:00−14в4108729 0.0 1023314
11 марта, чт
чт1100:00−15в39910 0.0 1023247
03:00−15в39920 0.0 1021255
06:00−16вюв39930 0.0 1019276
09:00−15вюв489217 0.0 1017315
12:00−10юв488698 0.0 1014478
15:00−6юв598599 0.1 1010530
18:00−4юв51189100 0.1 1006861
21:00−3ююв61485100 0.2 1001998